Ann Arbor, MI

3:34 PM EDT on May 24, 2017 (GMT -0400)
Ann Arbor W | | Change Station

Elev 1025 ft 42.26 °N, 83.79 °W | Updated 11 seconds ago

Rain
Rain
61.9 °F
Feels Like 61.9 °F
N
2.0
Wind Variable Wind from ESE

Today
High -- | Low -- °F
--% Chance of Precip.
Yesterday
High -- | Low -- °F
Precip. -- in
Pressure 29.55 in
Visibility 10.0 miles
Clouds Scattered Clouds 1400 ft
Mostly Cloudy 6000 ft
Overcast 9000 ft
Dew Point 56 °F
Humidity 81%
Rainfall 0.02 in
Snow Depth Not available.
6:05 AM 8:58 PM
Waning Crescent, 2% visible
SPECI KARB 241858Z 07007KT 10SM -RA SCT014 BKN060 OVC090 17/15 A2955 RMK AO2 P0001 T01670150
Pressure 29.55 in
Visibility 10.0 miles
Clouds Scattered Clouds 1400 ft
Mostly Cloudy 6000 ft
Overcast 9000 ft
Dew Point 56 °F
Humidity 81%
Rainfall 0.02 in
Snow Depth Not available.
6:05 AM 8:58 PM
Waning Crescent, 2% visible
SPECI KARB 241858Z 07007KT 10SM -RA SCT014 BKN060 OVC090 17/15 A2955 RMK AO2 P0001 T01670150

Get Severe Weather Alerts

Thanks for signing up!

Be on the lookout for a verification email in your inbox.

You'll start receiving the daily forecast at 6 AM.

×

10-Day Weather Forecast

Almanac

Astronomy

May. 24, 2017 Rise Set
Actual Time
Civil Twilight
Nautical Twilight
Astronomical Twilight
Moon
Length of Visible Light
Length of Day
Tomorrow will be .
, % of the Moon is Illuminated

Today's Extremes

State Highs State Lows

Community

WunderPhotos

Category 6

Welcome to Category 6. This is the collective home for Weather Underground's featured writeups by Dr. Jeff Masters (right), Bob Henson (left), Chris Burt, and other regular contributors.

Nearby

Air Quality

  Air Quality AQ Index Pollutant
Not available.

Snow Depth

Station Depth Elevation

Earthquake Activity

City Distance Mag. Time & Date
Minimum magnitude displayed is 2.5.

Coastal Water Temperatures

Place Temperature

Stations

Nearby Weather Stations

Station Location Temp. Windchill Dew Point Humidity Wind Precip. Elev Updated Type
                   

Watches & Warnings

There are currently no watches in effect.